Location: Kellogg
(38.0159°N, 90.0546°W)
Time: 08:44:23
(UTC+00:00)

Altair - Pass Details

Date: 21 September 2024
Orbit: 1501 x 1682 km, 47.2° (Epoch: 07 October)

Event Time Altitude Azimuth Distance (km) Brightness Sun altitude
Rises 07:01:25 0° 240° (WSW) 4,788 - -48.4°
Reaches altitude 10° 07:04:28 10° 241° (WSW) 3,828 - -48.2°
Maximum altitude 07:14:20 83° 330° (NNW) 1,668 - -47.2°
Exits shadow 07:17:50 48° 52° (NE) 2,085 8.2 -46.9°
Drops below altitude 10° 07:24:32 10° 59° (ENE) 3,943 10.1 -46.1°
Sets 07:27:44 0° 60° (ENE) 4,938 10.8 -45.8°
